Weather in Kunchukokhabl

Russia / Republic of Adygea     44°58′58″N   39°28′32″E
temp.,
°C
wind,
m/s
gust,
m/s
humid.,
%
clouds,
%
prec.,
mm/h
press.,
hPa
HPBL,
m
18 may, tue
tue1800:00+15wsw4986100 0.0 1011463
03:00+15wsw4887100 0.0 1011329
06:00+14wsw3791100 0.0 1011257
09:00+19wsw58745 0.0 1012864
12:00+21w57618 0.0 10111390
15:00+22wsw68590 0.0 10101445
18:00+20w47732 0.0 1010340
21:00+16ese228650 0.0 101014
19 may, wed
wed1900:00+16wsw3389100 0.2 100953
03:00+15sw3391100 1.2 100963
06:00+14sw1398100 8.6 1010202
09:00+13wsw5995100 15.3 1012513
12:00+18sw1014719 0.3 10131469
15:00+18sw101671100 0.6 10141667
18:00+16sw1016755 0.1 10151296
21:00+15sw815655 0.1 1016933
20 may, thu
thu2000:00+14sw51267100 0.0 1016423
03:00+12wsw36806 0.0 1015102
06:00+11se348532 0.0 101692
09:00+18ese46665 0.0 1015468
12:00+21e5656100 0.0 1014899
15:00+23e5657100 0.0 10131035
18:00+21ene5107297 0.0 1012376
21:00+16ene5128652 0.0 1011208
21 may, fri
fri2100:00+14ene499318 0.0 1010161
03:00+13e35935 0.0 100972
06:00+15e34874 0.0 100973
09:00+22e34610 0.0 1009244
12:00+28e57572 0.0 1008481
15:00+29e57635 0.0 1007681
18:00+27ene47790 0.0 1006286
21:00+20e33920 0.0 100738
22 may, sat
sat2200:00+19nne11915 0.0 100711
03:00+18ene239246 0.0 100625
06:00+18wnw1191100 0.0 100716
09:00+22ene2486100 0.0 1006163
12:00+26nne337070 0.0 1007341
15:00+28nne2470100 0.0 1007315
18:00+26ne348011 0.0 100665
21:00+22e0187100 0.0 100711